Tracking 19908 objects as of 18-Oct-2019
HD Live streaming from Space Station
objects crossing your sky now

COSMOS 1289

Track COSMOS 1289 now!
10-day predictions
COSMOS 1289 is classified as:


NORAD ID: 12638
Int'l Code: 1981-074C
Perigee: 1,432.6 km
Apogee: 1,471.6 km
Inclination: 74.0 °
Period: 114.8 minutes
Semi major axis: 7823 km
RCS: 0.7098 m2 (medium)
Launch date: August 6, 1981
Source: Commonwealth of Independent States (former USSR) (CIS)
Launch site: PLESETSK MISSILE AND SPACE COMPLEX (PKMTR)
aabbcc
Your satellite tracking list
Your tracking list is empty




NASA's NSSDC Master Catalog

Two Line Element Set (TLE):
1 12638U 81074C   19290.64923895 +.00000002 +00000-0 +11129-3 0  9996
2 12638 074.0333 166.5304 0024913 182.3302 206.3827 12.54679475749452
Source of the keplerian elements: AFSPC